This is the latest recevied weather packets stored in our database for station/object KM8V-8. If no packets are shown the sender has not sent any weather packets the latest 10 day(s).
| Time | Temp. | Humidity | Pressure | Rain* | Wind** | Luminosity | Snow |
|---|---|---|---|---|---|---|---|
| 1778040329 | 8.33° C | 99% | 1009.2 hPa | 1.27 mm | - | 0 W/m² | - |
| 1778040029 | 8.33° C | 99% | 1009.2 hPa | 1.52 mm | - | 0 W/m² | - |
| 1778039716 | 8.89° C | 99% | 1009.3 hPa | 1.78 mm | - | 0 W/m² | - |
| 1778039429 | 8.89° C | 99% | 1009.4 hPa | 2.03 mm | - | 0 W/m² | - |
| 1778039129 | 8.89° C | 99% | 1009.6 hPa | 2.29 mm | - | 0 W/m² | - |
| 1778038829 | 8.89° C | 99% | 1009.5 hPa | 2.54 mm | - | 0 W/m² | - |
| 1778038529 | 8.89° C | 99% | 1009.5 hPa | 2.79 mm | - | 0 W/m² | - |
| 1778038230 | 8.89° C | 99% | 1009.5 hPa | 3.3 mm | - | 0 W/m² | - |
| 1778037930 | 8.89° C | 99% | 1009.4 hPa | 3.56 mm | - | 0 W/m² | - |
| 1778037630 | 8.89° C | 99% | 1009.3 hPa | 3.56 mm | - | 0 W/m² | - |
| 1778037330 | 9.44° C | 99% | 1009.4 hPa | 3.81 mm | - | 0 W/m² | - |
| 1778037017 | 9.44° C | 99% | 1009.3 hPa | 4.06 mm | - | 0 W/m² | - |
| 1778036730 | 9.44° C | 99% | 1009.4 hPa | 4.06 mm | - | 0 W/m² | - |
| 1778036417 | 9.44° C | 99% | 1009.4 hPa | 4.06 mm | - | 0 W/m² | - |
| 1778036117 | 9.44° C | 99% | 1009.4 hPa | 4.06 mm | - | 0 W/m² | - |
| 1778035818 | 9.44° C | 99% | 1009.4 hPa | 4.06 mm | - | 0 W/m² | - |
| 1778035519 | 9.44° C | 99% | 1009.4 hPa | 3.81 mm | - | 0 W/m² | - |
| 1778035217 | 9.44° C | 99% | 1009.3 hPa | 3.56 mm | - | 0 W/m² | - |
| 1778034917 | 9.44° C | 99% | 1009.1 hPa | 3.56 mm | - | 0 W/m² | - |
| 1778034617 | 9.44° C | 99% | 1009 hPa | 3.3 mm | - | 0 W/m² | - |
| 1778034317 | 9.44° C | 99% | 1009 hPa | 3.05 mm | - | 0 W/m² | - |
| 1778034019 | 9.44° C | 99% | 1008.9 hPa | 3.05 mm | - | 0 W/m² | - |
| 1778033718 | 9.44° C | 99% | 1008.9 hPa | 2.54 mm | - | 0 W/m² | - |
| 1778033419 | 9.44° C | 99% | 1008.9 hPa | 2.29 mm | - | 0 W/m² | - |
| 1778033118 | 9.44° C | 99% | 1008.9 hPa | 2.03 mm | - | 0 W/m² | - |
* Rain latest hour (hover to see other rain measurements)
** Current wind speed in m/s (hover to see current wind gust speed)